Time,TemperatureF,DewpointF,PressureIn,WindDirection,WindDirectionDegrees,WindSpeedMPH,WindSpeedGustMPH,Humidity,HourlyPrecipIn,Conditions,Clouds,dailyrainin,SolarRadiationWatts/m^2,SoftwareType,DateUTC
2013-09-05 00:23:00,75.0,74.0,-100.00,NNE,12,2.0,4.0,96,0.00,,,0.00,0.000000,,2013-09-05 05:23:00,
2013-09-05 00:34:00,75.0,74.0,-100.00,NNE,12,2.0,4.0,96,0.00,,,0.00,0.000000,,2013-09-05 05:34:00,
2013-09-05 00:43:00,75.0,74.0,-100.00,NNE,12,2.0,4.0,96,0.00,,,0.00,0.000000,,2013-09-05 05:43:00,
2013-09-05 00:50:00,75.0,74.0,-100.00,NE,37,1.0,4.0,96,0.00,,,0.00,0.000000,,2013-09-05 05:50:00,
2013-09-05 01:22:00,75.0,74.0,-100.00,NE,37,1.0,4.0,96,0.00,,,0.00,0.000000,,2013-09-05 06:22:00,
2013-09-05 01:32:00,75.0,74.0,-100.00,NE,37,1.0,4.0,96,0.00,,,0.00,0.000000,,2013-09-05 06:32:00,
2013-09-05 01:42:00,75.0,74.0,-100.00,NE,37,1.0,4.0,96,0.00,,,0.00,0.000000,,2013-09-05 06:42:00,
2013-09-05 01:50:00,74.0,73.0,-100.00,NNE,14,2.0,4.0,96,0.00,,,0.00,0.000000,,2013-09-05 06:50:00,
2013-09-05 02:23:00,74.0,73.0,-100.00,NNE,14,2.0,4.0,96,0.00,,,0.00,0.000000,,2013-09-05 07:23:00,
2013-09-05 02:32:00,74.0,73.0,-100.00,NNE,14,2.0,4.0,96,0.00,,,0.00,0.000000,,2013-09-05 07:32:00,
2013-09-05 02:42:00,74.0,73.0,-100.00,NNE,14,2.0,4.0,96,0.00,,,0.00,0.000000,,2013-09-05 07:42:00,
2013-09-05 02:50:00,73.0,72.0,-100.00,NE,56,0.0,2.0,96,0.00,,,0.00,0.000000,,2013-09-05 07:50:00,
2013-09-05 03:22:00,73.0,72.0,-100.00,NE,56,0.0,2.0,96,0.00,,,0.00,0.000000,,2013-09-05 08:22:00,
2013-09-05 03:32:00,73.0,72.0,-100.00,NE,56,0.0,2.0,96,0.00,,,0.00,0.000000,,2013-09-05 08:32:00,
2013-09-05 03:42:00,73.0,72.0,-100.00,NE,56,0.0,2.0,96,0.00,,,0.00,0.000000,,2013-09-05 08:42:00,
2013-09-05 03:50:00,73.0,72.0,-100.00,NE,54,1.0,3.0,96,0.00,,,0.00,0.000000,,2013-09-05 08:50:00,
2013-09-05 04:22:00,73.0,72.0,-100.00,NE,54,1.0,3.0,96,0.00,,,0.00,0.000000,,2013-09-05 09:22:00,
2013-09-05 04:33:00,73.0,72.0,-100.00,NE,54,1.0,3.0,96,0.00,,,0.00,0.000000,,2013-09-05 09:33:00,
2013-09-05 04:43:00,73.0,72.0,-100.00,NE,54,1.0,3.0,96,0.00,,,0.00,0.000000,,2013-09-05 09:43:00,
2013-09-05 04:50:00,73.0,72.0,-100.00,NNE,18,1.0,3.0,97,0.00,,,0.00,0.000000,,2013-09-05 09:50:00,
2013-09-05 05:23:00,73.0,72.0,-100.00,NNE,18,1.0,3.0,97,0.00,,,0.00,0.000000,,2013-09-05 10:23:00,
2013-09-05 05:32:00,73.0,72.0,-100.00,NNE,18,1.0,3.0,97,0.00,,,0.00,0.000000,,2013-09-05 10:32:00,
2013-09-05 05:43:00,73.0,72.0,-100.00,NNE,18,1.0,3.0,97,0.00,,,0.00,0.000000,,2013-09-05 10:43:00,
2013-09-05 05:50:00,72.0,71.0,-100.00,NNE,29,1.0,4.0,97,0.00,,,0.00,0.000000,,2013-09-05 10:50:00,
2013-09-05 06:22:00,72.0,71.0,-100.00,NNE,29,1.0,4.0,97,0.00,,,0.00,0.000000,,2013-09-05 11:22:00,
2013-09-05 06:33:00,72.0,71.0,-100.00,NNE,29,1.0,4.0,97,0.00,,,0.00,0.000000,,2013-09-05 11:33:00,
2013-09-05 06:42:00,72.0,71.0,-100.00,NNE,29,1.0,4.0,97,0.00,,,0.00,0.000000,,2013-09-05 11:42:00,
2013-09-05 06:50:00,72.0,71.0,-100.00,ENE,59,0.0,4.0,97,0.00,,,0.00,3.000000,,2013-09-05 11:50:00,
2013-09-05 07:22:00,72.0,71.0,-100.00,ENE,59,0.0,4.0,97,0.00,,,0.00,3.000000,,2013-09-05 12:22:00,
2013-09-05 07:32:00,72.0,71.0,-100.00,ENE,59,0.0,4.0,97,0.00,,,0.00,3.000000,,2013-09-05 12:32:00,
2013-09-05 07:42:00,72.0,71.0,-100.00,ENE,59,0.0,4.0,97,0.00,,,0.00,3.000000,,2013-09-05 12:42:00,
2013-09-05 07:50:00,76.0,74.0,-100.00,NNE,33,4.0,6.0,92,0.00,,,0.00,106.000000,,2013-09-05 12:50:00,
2013-09-05 08:22:00,76.0,74.0,-100.00,NNE,33,4.0,6.0,92,0.00,,,0.00,106.000000,,2013-09-05 13:22:00,
2013-09-05 08:32:00,76.0,74.0,-100.00,NNE,33,4.0,6.0,92,0.00,,,0.00,106.000000,,2013-09-05 13:32:00,
2013-09-05 08:42:00,76.0,74.0,-100.00,NNE,33,4.0,6.0,92,0.00,,,0.00,106.000000,,2013-09-05 13:42:00,
2013-09-05 08:50:00,82.0,76.0,-100.00,NE,45,2.0,5.0,82,0.00,,,0.00,310.000000,,2013-09-05 13:50:00,
2013-09-05 09:22:00,82.0,76.0,-100.00,NE,45,2.0,5.0,82,0.00,,,0.00,310.000000,,2013-09-05 14:22:00,
2013-09-05 09:32:00,82.0,76.0,-100.00,NE,45,2.0,5.0,82,0.00,,,0.00,310.000000,,2013-09-05 14:32:00,
2013-09-05 09:42:00,82.0,76.0,-100.00,NE,45,2.0,5.0,82,0.00,,,0.00,310.000000,,2013-09-05 14:42:00,
2013-09-05 09:50:00,86.0,75.0,-100.00,NE,47,4.0,7.0,69,0.00,,,0.00,511.000000,,2013-09-05 14:50:00,
2013-09-05 10:22:00,86.0,75.0,-100.00,NE,47,4.0,7.0,69,0.00,,,0.00,511.000000,,2013-09-05 15:22:00,
2013-09-05 10:33:00,86.0,75.0,-100.00,NE,47,4.0,7.0,69,0.00,,,0.00,511.000000,,2013-09-05 15:33:00,
2013-09-05 10:44:00,86.0,75.0,-100.00,NE,47,4.0,7.0,69,0.00,,,0.00,511.000000,,2013-09-05 15:44:00,
2013-09-05 10:50:00,87.0,72.0,-100.00,East,85,4.0,10.0,62,0.00,,,0.00,610.000000,,2013-09-05 15:50:00,
2013-09-05 11:24:00,87.0,72.0,-100.00,East,85,4.0,10.0,62,0.00,,,0.00,610.000000,,2013-09-05 16:24:00,
2013-09-05 11:33:00,87.0,72.0,-100.00,East,85,4.0,10.0,62,0.00,,,0.00,610.000000,,2013-09-05 16:33:00,
2013-09-05 11:43:00,87.0,72.0,-100.00,East,85,4.0,10.0,62,0.00,,,0.00,610.000000,,2013-09-05 16:43:00,
2013-09-05 11:50:00,87.0,72.0,-100.00,NE,39,3.0,11.0,61,0.00,,,0.00,509.000000,,2013-09-05 16:50:00,
2013-09-05 12:23:00,87.0,72.0,-100.00,NE,39,3.0,11.0,61,0.00,,,0.00,509.000000,,2013-09-05 17:23:00,
2013-09-05 12:34:00,87.0,72.0,-100.00,NE,39,3.0,11.0,61,0.00,,,0.00,509.000000,,2013-09-05 17:34:00,
2013-09-05 12:43:00,87.0,72.0,-100.00,NE,39,3.0,11.0,61,0.00,,,0.00,509.000000,,2013-09-05 17:43:00,
2013-09-05 12:50:00,89.0,71.0,-100.00,South,178,3.0,10.0,56,0.00,,,0.00,560.000000,,2013-09-05 17:50:00,
2013-09-05 13:22:00,89.0,71.0,-100.00,South,178,3.0,10.0,56,0.00,,,0.00,560.000000,,2013-09-05 18:22:00,
2013-09-05 13:32:00,89.0,71.0,-100.00,South,178,3.0,10.0,56,0.00,,,0.00,560.000000,,2013-09-05 18:32:00,
2013-09-05 13:42:00,89.0,71.0,-100.00,South,178,3.0,10.0,56,0.00,,,0.00,560.000000,,2013-09-05 18:42:00,
2013-09-05 13:50:00,89.0,73.0,-100.00,SE,137,11.0,19.0,59,0.00,,,0.00,706.000000,,2013-09-05 18:50:00,
2013-09-05 14:22:00,89.0,73.0,-100.00,SE,137,11.0,19.0,59,0.00,,,0.00,706.000000,,2013-09-05 19:22:00,
2013-09-05 14:32:00,89.0,73.0,-100.00,SE,137,11.0,19.0,59,0.00,,,0.00,706.000000,,2013-09-05 19:32:00,
2013-09-05 14:42:00,89.0,73.0,-100.00,SE,137,11.0,19.0,59,0.00,,,0.00,706.000000,,2013-09-05 19:42:00,
2013-09-05 14:50:00,89.0,71.0,-100.00,ESE,119,8.0,17.0,55,0.00,,,0.00,854.000000,,2013-09-05 19:50:00,
2013-09-05 15:22:00,89.0,71.0,-100.00,ESE,119,8.0,17.0,55,0.00,,,0.00,854.000000,,2013-09-05 20:22:00,
2013-09-05 15:32:00,89.0,71.0,-100.00,ESE,119,8.0,17.0,55,0.00,,,0.00,854.000000,,2013-09-05 20:32:00,
2013-09-05 15:42:00,89.0,71.0,-100.00,ESE,119,8.0,17.0,55,0.00,,,0.00,854.000000,,2013-09-05 20:42:00,
2013-09-05 15:50:00,89.0,72.0,-100.00,South,172,6.0,12.0,58,0.00,,,0.00,700.000000,,2013-09-05 20:50:00,
2013-09-05 16:21:00,89.0,72.0,-100.00,South,172,6.0,12.0,58,0.00,,,0.00,700.000000,,2013-09-05 21:21:00,
2013-09-05 16:34:00,89.0,72.0,-100.00,South,172,6.0,12.0,58,0.00,,,0.00,700.000000,,2013-09-05 21:34:00,
2013-09-05 16:44:00,89.0,72.0,-100.00,South,172,6.0,12.0,58,0.00,,,0.00,700.000000,,2013-09-05 21:44:00,
2013-09-05 16:50:00,88.0,72.0,-100.00,SSE,164,5.0,13.0,60,0.00,,,0.00,497.000000,,2013-09-05 21:50:00,
2013-09-05 17:24:00,88.0,72.0,-100.00,SSE,164,5.0,13.0,60,0.00,,,0.00,497.000000,,2013-09-05 22:24:00,
2013-09-05 17:33:00,88.0,72.0,-100.00,SSE,164,5.0,13.0,60,0.00,,,0.00,497.000000,,2013-09-05 22:33:00,
2013-09-05 17:43:00,88.0,72.0,-100.00,SSE,164,5.0,13.0,60,0.00,,,0.00,497.000000,,2013-09-05 22:43:00,
2013-09-05 17:50:00,85.0,72.0,-100.00,South,177,3.0,12.0,66,0.00,,,0.00,157.000000,,2013-09-05 22:50:00,
2013-09-05 18:22:00,85.0,72.0,-100.00,South,177,3.0,12.0,66,0.00,,,0.00,157.000000,,2013-09-05 23:22:00,
2013-09-05 18:34:00,85.0,72.0,-100.00,South,177,3.0,12.0,66,0.00,,,0.00,157.000000,,2013-09-05 23:34:00,
2013-09-05 18:42:00,85.0,72.0,-100.00,South,177,3.0,12.0,66,0.00,,,0.00,157.000000,,2013-09-05 23:42:00,
2013-09-05 18:50:00,83.0,73.0,-100.00,SW,222,2.0,5.0,73,0.00,,,0.00,19.000000,,2013-09-05 23:50:00,
2013-09-05 19:22:00,83.0,73.0,-100.00,SW,222,2.0,5.0,73,0.00,,,0.00,19.000000,,2013-09-06 00:22:00,
2013-09-05 19:33:00,83.0,73.0,-100.00,SW,222,2.0,5.0,73,0.00,,,0.00,19.000000,,2013-09-06 00:33:00,
2013-09-05 19:42:00,83.0,73.0,-100.00,SW,222,2.0,5.0,73,0.00,,,0.00,19.000000,,2013-09-06 00:42:00,
2013-09-05 19:50:00,79.0,73.0,-100.00,NE,56,2.0,5.0,83,0.00,,,0.00,3.000000,,2013-09-06 00:50:00,
2013-09-05 20:22:00,79.0,73.0,-100.00,NE,56,2.0,5.0,83,0.00,,,0.00,3.000000,,2013-09-06 01:22:00,
2013-09-05 20:32:00,79.0,73.0,-100.00,NE,56,2.0,5.0,83,0.00,,,0.00,3.000000,,2013-09-06 01:32:00,
2013-09-05 20:42:00,79.0,73.0,-100.00,NE,56,2.0,5.0,83,0.00,,,0.00,3.000000,,2013-09-06 01:42:00,
2013-09-05 20:50:00,78.0,73.0,-100.00,NNE,19,1.0,3.0,86,0.00,,,0.00,0.000000,,2013-09-06 01:50:00,
2013-09-05 21:22:00,78.0,73.0,-100.00,NNE,19,1.0,3.0,86,0.00,,,0.00,0.000000,,2013-09-06 02:22:00,
2013-09-05 21:32:00,78.0,73.0,-100.00,NNE,19,1.0,3.0,86,0.00,,,0.00,0.000000,,2013-09-06 02:32:00,
2013-09-05 21:42:00,78.0,73.0,-100.00,NNE,19,1.0,3.0,86,0.00,,,0.00,0.000000,,2013-09-06 02:42:00,
2013-09-05 21:50:00,76.0,72.0,-100.00,ENE,61,0.0,5.0,88,0.00,,,0.00,0.000000,,2013-09-06 02:50:00,
2013-09-05 22:22:00,76.0,72.0,-100.00,ENE,61,0.0,5.0,88,0.00,,,0.00,0.000000,,2013-09-06 03:22:00,
2013-09-05 22:34:00,76.0,72.0,-100.00,ENE,61,0.0,5.0,88,0.00,,,0.00,0.000000,,2013-09-06 03:34:00,
2013-09-05 22:44:00,76.0,72.0,-100.00,ENE,61,0.0,5.0,88,0.00,,,0.00,0.000000,,2013-09-06 03:44:00,
2013-09-05 22:50:00,76.0,72.0,-100.00,ENE,60,2.0,4.0,88,0.00,,,0.00,0.000000,,2013-09-06 03:50:00,
2013-09-05 23:23:00,76.0,72.0,-100.00,ENE,60,2.0,4.0,88,0.00,,,0.00,0.000000,,2013-09-06 04:23:00,
2013-09-05 23:34:00,76.0,72.0,-100.00,ENE,60,2.0,4.0,88,0.00,,,0.00,0.000000,,2013-09-06 04:34:00,
2013-09-05 23:44:00,76.0,72.0,-100.00,ENE,60,2.0,4.0,88,0.00,,,0.00,0.000000,,2013-09-06 04:44:00,
2013-09-05 23:50:00,75.0,72.0,-100.00,NE,34,1.0,5.0,91,0.00,,,0.00,0.000000,,2013-09-06 04:50:00,